Theta_e
301 295 294 300 305 306 304 302 301 304 306 302 303 304 306 310 309 306 308 309 309 310 316 320 324 328 330 331 332 332 331 330 330 330 329 329 328 330 331 333 333 333 332 332
297 294 303 306 305 303 303 301 300 304 303 301 303 303 307 309 310 311 311 311 312 312 311 316 321 325 328 329 332 333 333 332 331 330 330 329 329 330 332 332 333 334 334 334
298 301 305 303 302 301 301 300 300 300 298 299 298 297 301 305 307 308 310 311 313 314 313 312 318 323 326 328 330 332 334 334 333 332 331 330 331 331 331 332 332 332 333 332
299 303 302 300 299 301 296 303 301 297 296 293 297 290 299 303 303 305 307 307 309 311 314 313 314 320 324 326 331 332 333 334 335 334 332 330 328 328 331 332 333 333 332 332
296 298 298 296 298 302 299 301 299 298 295 295 295 291 296 301 300 302 304 307 307 309 312 313 311 316 322 326 328 331 332 333 334 335 334 332 331 332 333 333 333 334 334 332
298 302 300 299 301 302 300 297 296 295 295 288 294 293 294 298 301 303 306 306 307 308 309 312 313 312 318 324 328 329 330 330 333 334 335 333 332 332 331 332 332 333 333 331
292 295 298 300 297 299 298 294 286 284 284 285 292 292 295 301 302 301 302 303 305 306 307 308 310 310 310 315 323 326 328 327 330 332 333 333 333 333 332 332 332 332 332 331
287 285 294 299 296 293 295 295 288 282 283 287 287 287 294 301 302 303 304 305 305 305 305 305 307 311 309 309 314 319 323 325 327 330 331 333 333 333 333 333 333 333 333 332
290 288 297 299 299 296 291 289 296 286 281 284 289 292 297 300 299 301 301 303 303 304 305 305 305 305 307 308 309 310 313 318 323 327 329 331 332 332 331 333 334 333 334 331
295 284 293 291 295 295 295 297 287 289 283 281 287 290 291 295 297 299 300 302 303 305 303 304 305 306 307 306 307 309 309 309 314 320 326 328 330 331 332 332 332 332 333 328
298 290 286 290 289 289 290 291 292 293 290 285 283 288 299 299 300 300 301 300 300 301 302 303 304 305 306 306 307 307 308 308 309 312 318 324 327 329 329 328 328 329 328 323
295 290 283 287 291 294 296 293 293 288 285 289 288 288 299 299 300 300 299 299 301 302 303 303 304 304 305 305 306 306 307 308 308 310 313 319 322 323 324 324 323 321 320 318
292 288 282 283 288 290 290 294 295 294 290 287 285 288 299 300 298 299 300 301 300 301 302 303 304 304 304 305 305 306 308 308 308 308 309 310 315 316 318 319 315 313 310 309
296 289 287 282 286 289 285 289 292 292 286 286 287 290 296 297 297 298 300 301 302 302 301 302 303 304 304 304 305 306 307 308 308 306 306 307 309 312 309 305 305 304 304 302
294 287 289 289 290 290 289 288 289 288 291 287 289 290 293 296 298 299 300 300 300 300 301 302 302 304 304 304 304 304 306 307 306 304 304 304 305 307 306 301 299 297 298 299
295 287 288 284 289 289 288 289 290 290 290 291 291 290 297 299 299 299 299 299 299 300 301 301 302 302 302 303 303 303 304 305 304 303 302 300 300 299 298 296 293 294 291 291
292 289 286 284 287 288 283 286 289 290 291 291 287 292 297 296 297 298 299 299 299 300 301 301 301 302 303 303 303 302 304 305 301 301 297 293 292 292 292 290 290 289 289 289
290 288 287 282 285 277 288 294 293 291 292 293 293 294 296 297 299 300 301 300 300 301 301 301 302 302 304 304 303 303 303 302 298 297 292 290 290 289 288 288 288 287 287 288
295 291 284 282 282 287 289 289 290 289 289 295 294 295 297 298 299 298 301 301 300 301 302 303 303 303 303 303 303 301 298 297 295 294 292 290 289 288 287 287 287 286 287 287
291 293 289 284 281 278 288 294 296 295 284 296 296 295 296 297 291 295 300 298 298 298 299 298 299 301 301 301 299 296 294 294 293 293 292 291 289 288 287 287 286 286 287 286
284 286 284 284 283 287 293 293 297 284 289 294 297 297 297 295 297 299 297 297 297 296 296 297 298 297 297 295 294 292 292 292 293 290 290 288 288 288 288 287 286 286 285 285
284 284 284 285 283 280 294 292 289 294 297 294 294 296 296 298 298 297 296 295 295 294 294 292 292 292 292 292 291 291 291 291 289 288 287 287 287 287 286 286 285 285 285 285
285 289 287 288 287 293 294 295 298 299 298 294 296 296 296 296 295 295 295 294 293 291 289 288 288 288 288 289 289 288 289 288 286 286 286 286 286 286 286 285 285 284 285 285
289 291 290 290 291 292 292 295 296 295 296 295 296 296 296 295 293 291 290 289 289 288 287 286 287 286 286 286 286 287 286 286 286 285 285 285 285 285 285 285 285 285 285 284
291 289 288 288 287 290 292 294 295 294 293 291 291 292 294 293 290 289 287 286 286 286 285 285 285 285 284 285 285 285 285 285 285 285 285 285 285 285 284 284 285 285 285 286
290 290 288 288 293 293 294 295 295 292 291 291 290 288 288 290 289 287 284 284 284 283 283 283 283 283 283 283 282 283 283 284 284 284 284 285 285 284 284 283 283 283 285 287
Wind_Speed
8 9 15 18 17 16 15 15 19 9 6 5 13 17 15 13 12 14 14 14 12 13 11 13 15 16 16 17 18 18 17 17 13 10 10 9 9 9 9 8 11 11 10 10
11 18 19 20 18 16 11 13 14 3 5 4 13 22 18 17 17 17 16 16 17 16 12 14 17 17 17 18 17 17 17 18 15 11 10 9 9 8 8 8 9 12 12 11
18 12 18 19 19 19 17 16 14 10 5 9 10 21 24 18 21 18 16 18 18 18 16 15 17 19 17 18 17 17 16 17 16 16 10 9 8 8 9 9 8 9 10 8
14 11 22 22 22 18 15 12 3 6 5 9 3 9 14 4 6 12 14 17 20 18 16 12 14 16 18 20 17 19 19 18 16 17 12 13 11 11 9 10 9 10 13 13
14 18 18 20 23 18 14 12 11 7 8 9 13 9 6 15 15 12 15 14 16 17 17 17 17 16 18 16 17 17 19 19 18 17 16 13 13 10 10 10 11 11 12 13
8 6 14 17 14 16 13 12 7 2 4 10 15 14 9 13 14 11 11 6 9 13 15 16 15 12 13 12 14 14 18 18 18 19 19 18 17 14 11 12 11 10 9 10
9 12 4 5 19 13 15 18 4 2 4 9 3 10 16 8 10 5 7 7 7 7 9 11 15 13 11 13 15 15 17 19 19 19 20 21 19 18 17 15 11 11 10 10
14 8 15 14 22 12 20 16 7 9 9 7 2 12 5 6 6 9 12 11 11 10 7 8 10 10 11 11 12 14 16 17 18 20 20 19 20 13 13 15 11 10 10 10
19 9 18 18 10 15 10 11 3 5 2 1 8 11 14 15 14 12 12 13 12 8 7 8 7 8 9 10 12 14 15 15 16 19 17 18 17 18 16 17 14 11 12 10
11 9 13 5 6 3 13 15 5 2 6 8 10 15 13 4 7 10 11 11 8 6 3 4 6 6 6 7 8 10 13 15 15 14 14 14 16 16 15 13 16 15 12 10
16 9 9 9 8 13 6 14 3 5 6 6 6 10 9 11 11 14 10 2 3 3 4 8 6 6 6 7 7 9 9 11 11 12 12 13 14 15 15 13 13 12 11 11
4 7 9 17 2 3 15 16 15 9 9 10 8 13 3 5 7 4 2 1 5 6 7 5 5 5 5 6 7 8 8 9 9 10 10 11 11 9 14 13 10 6 9 10
10 7 10 9 5 5 17 17 20 15 4 7 6 12 6 12 7 7 5 5 5 5 6 5 6 5 6 7 7 8 8 9 8 9 9 10 12 10 11 9 7 8 8 9
10 4 8 11 6 14 16 24 19 18 6 17 14 24 18 9 8 6 7 9 11 10 10 10 7 6 7 7 8 8 8 8 7 7 8 7 7 7 4 4 5 7 8 10
9 6 5 6 4 14 12 19 21 20 28 17 22 21 33 20 11 12 9 9 10 13 13 11 8 7 8 8 8 8 8 8 8 8 7 7 5 5 5 5 6 5 8 9
11 3 6 3 7 5 2 19 22 28 27 24 23 21 35 8 11 14 11 10 12 13 14 13 7 8 10 8 9 8 10 9 8 9 9 6 5 3 4 5 5 7 6 7
14 6 5 5 6 4 5 22 23 27 29 25 24 37 15 19 13 14 13 14 15 14 17 14 11 9 6 7 7 9 8 7 9 8 5 6 7 7 6 5 6 6 7 7
20 10 4 5 6 9 12 4 24 27 22 25 27 25 15 18 11 13 16 16 14 16 15 12 9 8 4 5 7 9 7 8 7 6 6 7 7 7 8 7 6 6 6 8
12 9 6 8 10 7 17 5 8 19 22 25 25 23 22 22 15 24 12 13 16 16 12 9 5 6 7 6 6 6 6 7 8 7 7 8 8 8 9 10 11 8 7 6
0 11 6 5 9 13 4 6 17 10 16 18 24 26 23 14 14 14 4 4 5 4 4 6 7 6 5 2 4 5 5 6 9 9 8 8 8 8 8 8 9 7 9 7
7 7 14 7 9 7 7 9 12 11 5 4 11 16 14 13 15 0 2 0 2 3 6 8 7 6 5 2 5 6 6 9 6 6 7 7 7 8 8 8 6 8 9 9
14 12 10 8 12 21 8 13 18 7 4 6 3 4 6 11 4 2 0 2 5 6 6 7 5 5 5 2 3 4 6 4 6 6 5 6 5 6 4 8 6 6 8 9
10 8 10 15 14 1 15 4 11 4 4 5 4 3 3 2 3 1 3 4 5 5 3 3 5 5 5 5 3 2 1 4 5 5 5 6 6 5 8 7 8 7 7 7
3 3 5 4 11 7 11 5 2 5 5 5 4 5 5 4 4 5 5 2 2 4 5 5 5 5 5 4 4 2 1 3 4 5 6 6 6 6 5 5 6 6 7 6
5 12 8 5 3 4 5 11 9 6 6 6 5 5 5 5 3 5 5 3 3 3 3 4 4 4 4 4 4 4 2 3 3 4 5 6 5 7 6 4 5 4 2 5
7 8 10 11 11 11 7 14 11 12 10 9 8 6 4 4 7 6 5 2 3 4 2 4 4 4 5 5 5 5 4 3 3 4 4 4 5 5 5 6 6 9 5 7
Wind_Direction
222 177 192 205 212 224 220 211 237 213 142 252 240 256 249 249 233 239 252 256 246 232 220 211 209 210 208 213 210 204 200 202 197 196 195 199 202 197 202 203 199 199 201 188
169 217 192 196 200 214 236 232 225 180 131 248 277 275 267 254 250 247 246 249 254 249 223 214 200 203 206 210 207 208 205 203 200 197 204 207 207 202 201 199 201 199 195 189
194 183 192 197 197 202 211 217 223 232 169 229 275 270 271 248 245 245 239 244 244 247 237 222 211 200 201 208 206 208 210 208 206 205 199 203 212 210 204 200 197 204 197 181
221 209 203 195 197 197 206 219 229 209 264 267 62 288 294 289 244 232 231 236 243 239 235 230 215 214 210 206 201 203 208 210 210 203 206 204 205 205 204 203 201 197 197 200
180 182 188 199 190 192 223 168 203 224 248 287 256 272 277 244 251 247 252 240 239 243 238 227 223 209 209 213 202 206 206 205 207 205 208 209 211 211 200 210 204 205 198 198
138 177 183 206 190 195 141 140 127 176 268 258 249 240 262 250 254 255 236 263 268 242 242 235 228 226 214 208 211 210 209 211 206 201 206 213 213 212 209 210 199 201 199 197
129 175 119 211 167 178 168 161 141 160 200 248 7 236 240 295 306 252 260 246 277 266 242 239 231 218 210 211 205 210 210 213 211 211 207 207 214 213 215 213 207 201 201 196
163 190 183 182 173 180 191 180 174 196 205 243 119 236 247 215 285 265 235 267 281 246 258 259 260 230 217 216 210 216 216 218 215 207 213 213 210 211 212 214 209 210 207 203
178 159 157 181 174 153 175 202 305 99 36 298 228 251 266 241 238 245 247 260 262 263 275 267 263 240 234 215 214 215 222 225 224 219 214 214 214 213 210 211 210 206 207 198
153 124 185 148 116 4 184 157 122 224 200 239 249 253 255 191 248 237 238 251 264 231 306 303 286 278 252 244 241 223 223 224 223 231 223 219 216 217 218 213 210 206 202 175
166 120 172 138 200 172 180 179 209 183 233 231 265 244 252 233 235 237 252 150 25 29 4 321 324 331 315 297 269 260 247 239 230 225 225 225 222 217 218 221 217 209 186 171
142 101 157 189 111 193 188 183 180 185 189 243 280 266 198 185 205 185 11 50 349 307 307 314 310 301 296 277 261 254 251 239 232 220 219 226 230 237 216 212 208 189 179 170
163 140 117 174 254 201 215 208 206 223 29 189 195 262 236 193 161 216 313 329 344 335 314 305 276 293 289 274 254 240 236 239 233 231 216 214 216 212 223 212 172 161 157 158
132 155 157 185 184 152 197 205 207 210 193 226 217 254 255 219 188 215 250 265 306 295 286 281 285 269 262 258 254 247 232 220 221 227 236 238 217 210 171 141 150 152 157 154
153 149 147 74 135 164 193 195 201 208 225 218 236 235 259 247 273 294 317 310 288 275 277 278 280 263 259 244 240 240 238 218 205 201 207 222 240 217 176 145 143 141 152 162
187 147 118 107 127 127 153 203 209 214 225 232 248 252 248 283 281 276 272 273 264 268 275 281 270 243 246 241 229 223 220 206 200 207 190 181 187 168 150 144 142 149 135 143
176 130 114 187 145 110 281 222 211 217 220 220 231 239 271 273 266 264 271 259 260 265 272 278 278 260 261 242 232 224 215 203 198 203 159 165 156 154 154 140 139 145 142 136
171 137 94 122 124 215 250 236 214 217 221 220 240 249 246 259 264 263 250 258 260 262 271 272 276 277 263 230 219 226 202 183 198 190 159 164 165 155 141 142 142 134 143 148
170 143 126 152 202 296 261 191 210 199 231 225 232 247 251 256 271 259 253 257 257 267 282 305 335 304 284 232 220 210 185 174 179 191 180 170 168 165 162 160 157 146 152 153
272 176 147 157 203 222 197 214 185 192 268 208 222 235 238 239 245 268 7 30 28 20 340 339 330 307 278 243 159 167 196 199 200 187 184 169 165 164 178 168 157 152 148 153
149 179 204 179 217 255 202 158 146 192 220 176 207 232 241 231 230 332 98 75 28 355 350 348 340 319 326 156 149 181 192 217 203 158 154 159 160 169 172 158 158 152 144 139
166 162 190 204 219 246 155 152 191 206 125 139 160 159 221 231 185 148 216 324 345 345 352 357 326 343 359 343 196 209 215 184 157 151 153 145 149 141 139 150 137 148 149 155
189 193 161 190 207 91 181 177 223 124 137 171 168 158 201 172 225 106 67 27 357 356 350 358 348 344 15 5 335 277 267 142 134 126 136 142 131 140 140 152 153 152 166 168
217 142 189 116 227 191 195 204 226 172 170 132 125 136 164 178 135 102 88 69 347 7 1 347 3 19 8 9 359 3 120 116 134 137 136 132 139 141 144 137 154 164 169 174
163 152 169 264 114 57 248 213 205 162 126 130 109 120 149 142 124 116 125 120 77 42 11 2 10 19 22 2 20 13 35 105 118 122 131 140 146 157 149 148 167 175 172 185
193 173 187 221 178 213 195 203 174 164 177 159 141 133 118 153 144 130 122 126 107 87 18 27 23 35 24 29 34 20 23 58 104 114 133 156 155 161 162 154 125 56 104 130